Location: Newark
(7.0858°N, 171.3717°E)
Time: 16:07:45
(UTC+00:00)

Transit 2A - Pass Details

Date: 26 November 2020
Orbit: 598 x 960 km, 66.7° (Epoch: 20 January)

Event Time Altitude Azimuth Distance (km) Brightness Sun altitude
Rises 17:43:30 0° 310° (NW) 2,944 - -11.5°
Reaches altitude 10° 17:46:45 10° 286° (WNW) 1,985 - -10.7°
Exits shadow 17:47:47 13° 273° (W) 1,794 7.3 -10.5°
Maximum altitude 17:49:10 14° 252° (WSW) 1,683 7.3 -10.2°
Drops below altitude 10° 17:51:32 10° 219° (SW) 1,940 7.9 -9.6°
Sets 17:54:40 0° 194° (SSW) 2,832 9.0 -8.9°
